sat.trackr.live / text

‹ back to catalog

STARLINK-35315

NORAD 66543 · 2025-265AD

PAYLOAD ACTIVE UNKNOWN

§ Identity

Operator
Country
US
Launch date
2025-11-19
Launch site
AFETR
Launch vehicle
Mass (kg)
RCS (m²)

Purposes: comms

External: N2YO · Heavens-Above · Gunter

§ Orbital elements

Epoch: 2026-05-25T05:03:02.181024Z

Period
94.27 min
Inclination
42.9975°
Eccentricity
0.0000752
Mean motion
15.27588883 rev/d
Perigee alt
482.5 km
Apogee alt
483.5 km
Semi-major
6,861.2 km
B*
5.3360e-4
RAAN
206.0132°
Arg perigee
286.1499°
Mean anomaly
73.9269°
Rev number
2,881

§ Raw data

STARLINK-353151 66543U 25265AD  26145.21044191  .00014454  00000+0  53360-3 0  99912 66543  42.9975 206.0132 0000752 286.1499  73.9269 15.27588883 28819

JSON: /api/v1/satellites/66543 · /tle

For live sub-satellite position, see the globe view (requires WebGL).

§ Visibility from observer

Set your observer location to see the next 7 days of passes ≥ 10°. The values pass through the URL so the page stays shareable.

No JS? Fill the form by hand. The geolocation button needs JavaScript.